Theta_e
301 301 301 301 301 301 301 301 302 302 303 303 304 304 305 306 307 318 325 323 325 325 322 336 342 347 344 346 347 348 356 351 348 354 351 349 348 353 351 354 353 351 352 350 350
301 301 301 301 301 301 301 301 302 303 303 304 305 305 306 306 314 320 321 321 322 320 328 332 340 342 344 346 346 348 356 346 339 347 350 348 347 347 349 352 353 354 351 349 349
302 302 302 302 301 301 301 301 302 303 303 304 306 307 307 307 322 327 324 323 321 320 321 329 336 340 344 344 344 344 346 343 338 340 349 349 348 345 350 353 352 355 352 349 348
302 302 302 302 302 302 301 302 302 304 306 306 312 312 310 316 327 327 319 319 320 322 324 327 335 339 342 343 341 341 340 337 337 339 347 347 345 348 347 352 349 351 349 349 348
303 303 303 303 303 303 302 302 302 303 307 311 314 314 316 322 323 325 320 321 324 324 324 329 335 338 338 340 340 338 338 336 335 340 345 346 345 346 351 350 349 350 349 349 348
304 304 304 305 304 304 302 302 302 303 310 314 314 313 319 319 322 328 327 326 327 326 328 331 335 337 335 337 338 335 336 336 338 339 346 345 348 347 347 349 349 350 349 348 347
304 304 305 305 305 305 303 302 303 306 312 312 314 317 322 321 323 323 325 330 331 331 334 333 334 334 332 336 334 333 335 335 339 341 345 345 344 349 347 349 351 350 349 348 347
305 305 305 305 306 306 303 304 305 308 310 313 315 321 321 320 322 322 321 326 329 331 332 329 330 331 332 334 334 334 334 337 340 342 343 344 349 350 345 349 352 350 349 347 346
305 305 305 305 305 306 303 307 309 310 310 318 322 325 323 321 322 321 322 323 327 328 328 327 328 329 332 331 333 334 336 337 348 342 344 347 353 344 345 347 351 351 349 347 346
305 305 304 304 304 305 307 310 311 310 320 323 324 326 324 323 323 323 321 322 324 325 324 326 327 328 329 331 335 336 337 338 348 346 346 353 350 348 346 344 348 350 349 348 346
305 305 304 303 304 306 307 313 315 322 315 316 315 322 317 319 322 323 323 322 324 325 324 326 327 327 329 330 333 336 338 339 347 344 347 352 348 354 348 346 345 348 350 350 349
305 305 304 302 304 308 310 313 311 310 312 313 314 314 314 314 315 323 323 322 323 326 324 326 327 326 328 330 331 334 337 339 344 349 348 355 356 355 348 349 348 346 349 350 350
305 305 304 302 306 310 313 312 310 311 312 314 317 317 317 317 315 318 324 323 325 328 325 325 326 326 327 327 329 332 335 337 347 346 346 345 350 355 351 347 351 349 348 349 350
305 305 304 302 311 312 314 310 310 311 315 318 320 320 318 317 315 317 320 324 324 327 327 325 325 325 326 327 328 332 333 335 344 348 358 344 353 351 356 352 348 352 350 348 350
305 305 304 304 309 315 311 309 309 312 320 320 320 320 320 317 319 318 318 324 324 325 325 325 325 324 326 327 328 331 333 335 338 345 347 344 348 349 352 356 351 349 351 350 349
304 304 305 310 310 312 310 309 310 317 318 317 318 319 319 321 320 321 319 323 325 325 325 325 325 324 326 328 328 330 332 334 336 338 349 345 346 349 348 351 350 349 349 353 349
304 305 307 308 312 309 309 311 315 317 317 315 315 317 316 317 319 320 321 323 326 325 326 325 324 324 325 327 328 329 331 337 339 341 341 344 348 347 347 344 346 349 350 353 354
304 307 310 310 309 308 309 312 315 317 317 316 315 315 314 314 315 318 321 322 324 325 325 325 325 324 325 325 328 328 330 336 342 339 338 337 344 342 347 347 347 345 348 351 352
306 310 312 311 308 306 309 314 316 317 315 313 313 313 314 315 315 315 320 321 324 325 328 326 326 325 325 326 327 328 331 331 335 338 338 336 341 348 347 346 343 344 350 350 352
307 311 313 309 307 307 309 312 314 314 313 313 312 314 315 315 314 315 315 322 322 324 325 328 329 326 324 326 326 327 330 332 334 341 345 339 344 343 350 347 345 344 342 351 352
310 314 311 309 308 309 312 313 313 312 311 311 313 314 314 314 315 315 318 322 323 323 326 326 328 330 326 325 326 327 329 331 332 335 342 347 340 343 350 348 348 345 341 343 346
310 315 312 309 310 312 315 310 309 309 309 308 309 309 311 312 313 315 315 320 322 321 323 327 327 331 329 326 325 327 328 329 335 341 338 343 343 340 342 341 344 340 343 341 342
313 314 312 309 311 311 311 309 309 308 307 307 308 309 309 309 312 314 315 315 316 317 322 323 328 332 331 328 326 326 327 329 332 334 342 343 342 339 339 342 344 343 342 345 346
312 314 313 312 310 309 308 308 308 308 307 307 307 307 309 311 310 312 314 315 315 316 328 322 323 329 331 331 327 328 327 328 330 336 337 338 342 340 341 344 344 343 348 348 355
311 312 311 312 311 310 307 308 309 308 307 308 309 309 307 313 313 313 314 314 314 318 319 320 323 327 330 330 328 327 326 327 330 333 337 338 340 340 344 342 343 347 351 350 351
312 310 309 310 310 310 309 309 310 308 308 310 310 310 310 312 313 319 319 317 315 317 319 322 326 329 331 330 330 327 328 327 327 329 332 335 341 341 342 343 343 346 347 354 354
308 308 309 309 310 311 310 308 307 307 308 309 309 311 311 310 310 316 317 317 318 318 319 323 326 331 333 332 331 331 330 328 330 329 330 334 339 341 342 342 344 345 345 348 353
Wind_Speed
29 30 29 29 29 29 29 29 27 26 25 25 24 22 21 22 25 14 12 14 15 16 6 9 14 20 18 19 17 20 8 10 4 16 11 13 16 22 11 14 13 6 24 30 34
30 30 30 31 31 30 32 30 27 26 27 27 25 22 19 20 20 21 24 25 22 12 10 15 14 14 13 19 13 8 7 16 7 13 9 5 15 9 10 12 10 20 29 35 33
31 31 32 32 32 32 33 30 28 29 28 27 25 21 17 16 11 6 5 20 29 24 18 18 19 15 17 16 19 13 6 17 8 5 18 13 15 10 16 13 12 27 27 25 30
31 32 33 33 33 33 34 29 28 29 28 25 22 18 13 6 6 5 2 5 17 19 18 22 18 18 16 16 18 12 14 1 6 3 8 8 14 11 6 17 19 24 25 23 23
32 33 33 34 35 35 34 27 30 30 26 21 20 15 5 9 15 14 3 2 13 16 23 20 19 18 17 18 18 11 11 1 7 4 8 14 10 11 15 21 22 25 25 24 22
34 35 35 34 36 36 35 29 32 29 21 19 18 11 6 15 14 13 8 8 11 18 22 23 16 17 16 19 19 12 15 9 5 8 6 10 13 12 10 22 22 24 25 22 22
35 37 38 36 36 36 33 31 31 27 17 18 16 5 11 22 8 6 9 13 15 19 18 19 20 15 17 19 13 17 12 15 9 13 7 11 11 13 15 18 21 22 22 21 21
36 37 38 38 36 36 32 30 27 27 18 15 13 6 8 12 13 23 14 17 18 16 18 14 17 18 17 16 19 16 18 15 15 16 11 10 13 15 17 18 20 21 21 20 21
36 37 38 38 36 35 30 31 28 27 17 12 5 10 11 2 14 15 18 18 20 19 14 15 14 16 17 15 14 15 15 17 9 15 17 11 3 18 16 16 17 19 19 19 19
35 37 39 39 36 29 28 30 23 16 7 9 15 11 11 11 3 10 18 19 16 18 18 16 12 15 16 15 16 18 19 19 20 16 20 15 10 4 18 18 17 18 19 19 20
36 38 40 40 35 23 28 23 6 5 10 16 16 17 26 19 13 11 14 20 17 17 20 21 15 19 23 22 21 23 19 16 19 11 16 22 20 28 18 19 18 18 18 19 19
36 39 41 38 33 18 19 12 10 8 15 20 25 26 35 25 22 12 17 19 21 21 23 20 21 22 21 22 23 25 25 17 14 9 22 29 31 32 20 21 22 20 20 21 21
37 38 41 36 23 13 10 10 13 12 7 21 18 18 21 21 25 19 18 21 20 23 25 23 25 23 22 23 24 25 25 21 19 18 28 21 19 23 22 18 23 23 21 20 22
36 38 39 34 8 19 8 15 15 13 6 10 9 4 7 13 15 25 23 19 23 23 24 23 27 25 24 24 24 24 26 25 20 17 19 13 8 17 24 21 18 22 23 22 22
36 36 34 20 16 9 13 17 15 11 6 9 7 2 4 11 11 23 31 20 24 24 19 23 21 27 25 27 24 24 23 22 14 17 6 7 15 15 13 23 21 18 22 23 21
37 36 33 11 14 15 18 18 11 6 10 5 8 6 6 14 13 5 23 24 20 24 26 25 22 24 27 23 26 24 21 23 19 14 14 15 12 17 23 16 21 21 20 21 22
39 38 27 14 11 16 16 10 6 7 8 4 5 6 8 11 11 12 21 23 21 23 24 22 28 26 23 26 24 25 21 13 16 15 12 20 18 9 2 4 8 11 21 20 21
41 30 16 10 10 12 14 8 10 13 15 18 11 11 10 11 14 19 18 19 25 23 18 21 19 29 27 27 22 25 23 15 19 17 16 17 10 6 11 7 12 25 22 20 21
37 21 16 12 7 12 8 8 12 14 14 12 17 12 13 17 17 17 16 18 21 25 24 20 25 20 29 23 26 25 23 24 24 19 16 17 18 11 19 21 11 15 18 20 20
28 21 19 4 8 11 8 14 20 18 12 13 12 10 15 17 17 17 17 14 21 25 26 26 20 24 27 26 28 24 19 22 18 17 20 19 15 9 20 16 6 11 15 20 20
13 6 8 5 14 8 9 15 5 16 13 10 15 18 18 21 23 22 12 17 17 17 23 28 24 25 24 30 25 19 22 23 21 17 14 15 13 17 23 22 26 27 16 15 16
11 6 7 8 8 8 10 5 11 14 14 14 16 18 19 20 22 23 23 19 14 17 17 23 19 21 28 26 30 26 25 25 17 24 16 15 6 7 8 16 14 16 17 18 17
6 10 6 6 7 9 11 11 11 12 12 13 16 18 18 20 20 21 25 26 20 18 10 13 9 20 25 22 25 29 26 27 23 21 19 12 14 8 18 19 18 12 10 5 2
6 5 1 4 5 8 11 13 14 5 8 13 13 17 21 22 21 22 24 20 20 20 7 9 15 17 18 19 23 27 29 28 26 19 19 18 7 4 10 2 17 18 13 6 6
4 4 7 8 8 12 9 15 13 12 7 9 15 16 17 16 20 22 25 23 24 26 7 15 18 20 26 28 23 25 28 28 29 23 24 20 17 20 12 9 6 17 13 7 4
5 4 7 11 14 15 14 1 2 16 5 8 13 13 12 15 18 24 24 20 21 18 14 14 15 17 24 27 30 28 28 29 30 29 25 25 13 14 9 12 20 12 11 10 5
4 5 5 9 13 11 11 7 11 12 5 6 11 11 14 18 17 20 24 23 17 8 14 7 14 14 19 22 25 20 29 28 26 24 26 22 14 19 19 1 8 13 10 14 14
Wind_Direction
15 12 8 4 359 355 350 343 338 335 332 328 325 323 323 315 309 292 242 246 215 239 234 230 226 238 245 261 263 266 329 328 101 140 144 182 126 103 141 117 149 151 141 147 161
11 8 5 1 357 352 348 343 340 337 332 328 323 320 322 317 306 270 252 243 252 234 220 231 227 229 242 258 246 226 242 295 31 83 81 142 120 106 133 133 127 114 131 153 154
7 5 1 358 355 350 345 342 339 334 329 325 322 319 317 321 278 322 254 225 231 234 234 240 241 233 243 255 263 260 287 291 53 67 159 140 112 146 130 159 143 133 142 154 150
3 360 357 354 352 349 344 339 337 336 329 324 325 324 313 302 289 83 84 208 216 215 231 237 236 241 239 250 252 268 267 171 20 117 98 133 126 151 148 131 142 138 150 159 158
359 356 354 351 348 347 343 339 335 334 330 325 326 322 320 238 249 261 229 216 200 206 215 224 224 234 245 248 248 243 274 296 165 203 132 113 140 123 106 132 134 143 155 163 167
357 355 351 348 345 343 340 334 331 331 328 326 322 312 252 261 262 172 186 177 197 200 211 227 226 235 254 254 273 254 229 281 147 166 117 136 103 149 139 134 139 152 162 169 171
358 354 350 346 341 339 336 330 328 327 323 321 317 266 263 247 300 212 215 209 208 203 215 226 238 236 239 264 270 278 275 242 199 147 161 165 143 151 150 147 146 160 167 172 174
356 352 348 345 340 336 331 325 320 317 317 315 309 227 259 259 266 249 240 218 223 215 235 232 227 249 256 253 255 266 241 256 176 161 162 182 151 136 147 157 156 165 172 174 178
353 350 346 343 339 334 327 323 311 297 297 303 268 225 260 235 235 238 217 223 218 224 231 246 257 234 242 248 250 248 236 223 304 172 153 186 189 130 158 160 167 167 175 177 181
350 347 344 341 337 333 328 325 306 294 278 249 259 263 262 256 293 215 222 229 220 217 227 223 231 234 227 222 226 231 223 232 159 238 163 99 7 270 167 162 171 172 177 183 184
349 346 342 339 336 329 327 335 325 176 302 286 284 264 289 292 286 239 248 213 236 210 217 212 218 221 217 223 230 243 228 214 168 200 177 140 141 246 195 161 168 178 181 187 189
347 344 341 338 333 317 317 16 10 309 298 276 263 261 263 266 269 237 219 205 212 215 210 210 223 225 223 224 235 245 257 226 185 18 278 161 179 206 184 177 165 178 183 189 191
343 344 341 335 328 310 305 14 337 326 270 294 258 241 242 217 235 235 220 208 215 213 206 216 213 222 224 226 223 237 248 255 149 148 271 231 181 166 176 187 168 174 179 191 190
341 342 340 336 318 326 311 342 331 327 283 260 192 131 216 220 226 233 239 211 229 219 216 218 232 209 224 225 227 228 235 251 160 145 236 219 180 254 175 182 187 175 173 188 188
338 338 337 335 297 306 342 325 321 288 282 147 107 79 168 210 302 198 214 220 217 217 225 224 217 234 213 225 222 236 235 244 243 191 146 311 284 184 233 178 178 196 182 183 188
334 333 333 331 263 267 321 315 291 239 245 222 160 170 253 207 221 258 191 226 219 229 221 235 227 225 233 215 233 230 242 242 247 240 197 184 237 256 193 187 181 190 195 182 180
332 328 317 286 282 325 316 291 238 241 294 287 326 89 334 325 297 210 185 212 210 212 232 223 236 226 226 230 214 228 227 232 223 232 233 208 185 232 1 181 190 265 189 179 178
330 326 291 267 275 312 304 258 247 282 291 320 315 292 279 294 282 276 221 209 215 225 217 226 219 230 216 228 216 218 222 232 224 222 235 236 198 198 102 166 84 261 225 177 187
332 321 285 211 303 309 284 245 242 248 331 332 326 304 288 265 245 264 263 237 225 218 236 223 232 207 232 211 230 214 219 232 243 231 228 232 194 114 154 156 140 259 193 176 186
323 301 263 166 316 289 262 263 289 307 358 342 299 313 301 304 298 222 246 243 242 239 223 247 254 226 205 226 221 231 213 225 236 229 252 229 214 176 174 170 147 305 182 172 177
300 281 107 289 302 261 247 253 330 9 8 344 315 306 307 305 306 302 277 240 275 239 228 233 250 260 217 207 209 211 229 215 237 239 234 249 223 203 180 164 165 195 184 177 179
299 286 56 332 281 235 244 21 0 328 327 306 289 285 284 287 288 290 284 274 355 342 311 237 237 250 260 207 213 214 220 229 222 227 227 257 263 336 223 175 184 186 199 176 183
291 292 229 291 284 328 345 333 326 309 316 321 313 308 300 278 276 273 281 286 312 309 326 347 274 236 248 218 203 217 213 226 223 238 238 229 234 49 263 237 181 151 109 76 283
285 308 328 297 266 320 328 311 289 292 350 324 304 299 283 281 261 261 267 272 279 271 8 327 280 265 241 242 187 201 220 214 227 219 230 236 220 272 269 256 174 121 107 154 222
277 313 337 296 325 320 303 276 322 328 318 298 306 285 271 298 285 267 250 256 265 271 253 268 263 277 258 263 222 198 213 221 223 228 223 232 210 196 249 189 353 110 117 108 164
309 333 332 296 280 276 274 357 251 283 348 298 306 299 299 264 272 300 320 278 246 266 252 255 270 265 260 256 261 201 205 218 224 223 236 228 184 173 271 174 180 146 123 123 143
325 335 292 288 279 286 304 294 301 296 313 307 282 273 264 261 281 279 292 283 296 270 273 299 278 258 251 251 255 243 199 207 224 217 226 233 207 182 172 196 195 115 177 153 137